Regional Weather Roundup
Issued by NWS Columbia, SC

Home | Current Version | Previous Version | Text Only | Print | Product List | Glossary On
Versions: 1 2 3 4 5 6 7 8 9 10 11 12 13 14 15 16 17 18 19 20 21 22 23 24 25 26 27
000
ASUS42 KCAE 240210
RWRCAE
REGIONAL WEATHER ROUNDUP
NATIONAL WEATHER SERVICE COLUMBIA SC
1000 PM EDT FRI JUN 23 2017

NOTE: "FAIR" INDICATES FEW OR NO CLOUDS BELOW 12,000 FEET WITH NO
SIGNIFICANT WEATHER AND/OR OBSTRUCTIONS TO VISIBILITY.

NOT ALL STATIONS ARE QUALITY CONTROLLED BY THE NATIONAL
WEATHER SERVICE. USE DATA WITH CAUTION...ESPECIALLY
DEWPOINT OBSERVATIONS.

SCZ001>056-GAZ040-063>065-077-240300-
...UPSTATE SOUTH CAROLINA...

CITY           SKY/WX    TMP DP  RH WIND       PRES   REMARKS
ANDERSON       CLEAR     82  72  71 S12       29.91R
LIBERTY        CLOUDY    79  72  79 SW10      29.90R
SPARTANBURG    CLEAR     81  68  65 SW7       29.88R
CLEMSON        RAIN      80  72  76 MISG      29.93R
GREENVILLE     CLEAR     83  71  67 SW16G24   29.90R
GREENWOOD      CLEAR     81  70  69 SW10      29.94R
GREER          CLEAR     81  70  69 S21G29    29.88R
ROCK HILL      CLEAR     80  71  74 S10       29.90R
CHESTER        CLEAR     81  70  69 S6        29.91R
LAURENS        CLEAR     81  72  74 S8        29.91R


...CENTRAL SOUTH CAROLINA...

CITY           SKY/WX    TMP DP  RH WIND       PRES   REMARKS
COLUMBIA APT   PTCLDY    85  74  69 S13       29.92R
COLUMBIA OWENS CLEAR     84  74  71 S12       29.94R
MCENTIRE ANGB  CLEAR     80  75  84 S8        29.94R
ORANGEBURG     CLEAR     80  75  84 S8        29.97R
SUMTER SHAW    CLEAR     81  75  82 S12       29.92R
NEWBERRY       CLEAR     81  72  74 S7        29.95R
AIKEN          FAIR      81  73  78 S8        29.99R
BARNWELL       CLOUDY    82  77  83 S8        29.97R
MANNING        FAIR      81  77  89 S14G30    29.97R
CAMDEN         FAIR      81  75  83 S8        29.93R
LANCASTER      PTCLDY    81  73  78 S7        29.91R
WINNSBORO      CLEAR     82  73  74 S9        29.93R


...EASTERN AND COASTAL SOUTH CAROLINA...

CITY           SKY/WX    TMP DP  RH WIND       PRES   REMARKS
MYRTLE BEACH   CLEAR     81  73  78 S15G22    29.98R
N MYRTLE BCH   PTCLDY    80  75  84 S20       29.97R
CONWAY         FAIR      77  73  88 S8        29.97R
MARION         FAIR      79  73  83 S9        29.95R
HARTSVILLE     FAIR      79  73  83 S8G17     29.93R
FLORENCE       CLEAR     81  77  88 S10       29.94R
DARLINGTON     CLEAR     82  77  84 S12       29.93R
CHARLESTON APT CLOUDY    79  72  79 SW14      29.99R
MOUNT PLEASANT FAIR      81  75  83 S13       29.99R
WALTERBORO     CLOUDY    77  73  88 S6        29.99R
BEAUFORT       CLOUDY    83  76  79 S9G16     29.99R


...EASTERN GEORGIA...

CITY           SKY/WX    TMP DP  RH WIND       PRES   REMARKS
AUGUSTA BUSH F PTCLDY    86  76  71 S9        29.94R HX  96
AUGUSTA DANIEL MOCLDY    87  73  62 S9        29.96R
THOMSON        CLEAR     81  73  77 W6        30.00R
WASHINGTON     FAIR      82  75  78 SW3       29.95R
CLAXTON        FAIR      77  76  95 CALM      30.00R
SYLVANIA       CLOUDY    80  78  94 CALM      29.99R
STATESBORO     CLOUDY    79  79  99 S5        29.99R
SAVANNAH       MOCLDY    82  72  71 S10G17    30.00R


...SOUTHERN NORTH CAROLINA...

CITY           SKY/WX    TMP DP  RH WIND       PRES   REMARKS
CHARLOTTE      PTCLDY    82  70  66 S13       29.88S
MONROE         PTCLDY    81  69  67 VRB7      29.89R
WADESBORO      CLEAR     83  71  69 S10       29.88R
ROCKINGHAM     CLEAR     83  75  78 S9G17     29.90R
ASHEVILLE      CLOUDY    78  65  63 S13G24    29.94R

$$




USA.gov is the U.S. government's official web portal to all federal, state and local government web resources and services.